Regional Weather Roundup
Issued by NWS

Home | Current Version | Previous Version | Graphics & Text | Print | Product List | Glossary On
Versions: 1 2 3 4 5 6 7 8 9 10 11 12 13 14 15 16 17 18 19 20 21 22 23 24 25 26 27 28 29 30 31 32 33 34 35 36 37 38 39 40 41 42 43 44 45 46 47 48 49 50
000
ASUS43 KLSX 141310
RWRMO

WEATHER SUMMARY FOR MISSOURI
NATIONAL WEATHER SERVICE SPRINGFIELD MO
700 AM CST SUN FEB 14 2016

NOTE: "FAIR" INDICATES FEW OR NO CLOUDS BELOW 12,000 FEET WITH NO
       SIGNIFICANT WEATHER AND/OR OBSTRUCTIONS TO VISIBILITY.
       CURRENT SKY AND/OR WEATHER CONDITIONS ARE NOT AVAILABLE FOR
       CHILLICOTHE AND FARMINGTON.

MOZ001>031-035>038-043-044-053-054-141400-
...NORTHERN AND WESTERN MISSOURI...

CITY           SKY/WX    TMP DP  RH WIND       PRES   REMARKS
KANSAS CTY INT CLOUDY    22   9  57 SE8       30.00S WCI  12
KANSAS C DTWN  CLOUDY    26  13  57 E8        30.02F WCI  18
LEE`S SUMMIT   CLOUDY    25  17  72 SE10      30.01F WCI  15
ST JOSEPH      CLOUDY    25   7  46 S9        30.02F WCI  15
CHILLICOTHE      N/A     23  12  62 SE12      30.07F WCI  12
KIRKSVILLE     SNOW      19  14  81 SE15      30.09S VSB 1/2 WCI   5

$$
MOZ066>068-077>081-088>096-101>105-141400-
...SOUTHWEST MISSOURI...

CITY           SKY/WX    TMP DP  RH WIND       PRES   REMARKS
SPRINGFIELD    CLOUDY    27   9  46 SE13      30.03R WCI  16
JOPLIN         CLOUDY    35  16  45 VRB3      30.02F

$$
MOZ032>034-039>042-045>050-055>058-069>072-141400-
...CENTRAL MISSOURI...

CITY           SKY/WX    TMP DP  RH WIND       PRES   REMARKS
COLUMBIA       HVY SNOW  20  18  92 SE13      30.09F VSB 1/4 WCI   7
JEFFERSON CITY SNOW      22  19  89 SE13      30.13R VSB 1/2 WCI  10
ROLLA          LGT SNOW  21  18  88 SE9       30.09R FOG     WCI  11
SEDALIA        LGT SNOW  24  21  88 SE7       30.07S FOG     WCI  16
WHITEMAN AFB   CLOUDY    24  22  92 SE7       30.04F WCI  16
WARRENSBURG    CLOUDY    27  21  80 E9        30.04F WCI  17
OSAGE BEACH    CLOUDY    27  21  80 CALM      30.11R

$$
MOZ051-052-059>065-141400-
...EAST CENTRAL MISSOURI...

CITY           SKY/WX    TMP DP  RH WIND       PRES   REMARKS
ST LOUIS INTL  CLOUDY    24  11  57 SE18G28   30.19F WCI  10
SPIRIT OF STL  CLOUDY    23  10  57 E9G18     30.18F WCI  13
ST CHARLES     CLOUDY    22  11  62 SE20      30.20F WCI   7

$$
MOZ072>076-082>087-097>100-106>115-141400-
...SOUTH CENTRAL AND SOUTHEAST MISSOURI...

CITY           SKY/WX    TMP DP  RH WIND       PRES   REMARKS
CAPE GIRARDEAU CLOUDY    25  13  60 SE10      30.27F WCI  15
FARMINGTON     LGT SNOW  19  16  86 SE10      30.18F VSB 3/4 WCI   8
POPLAR BLUFF   FRZ RAIN  25  19  78 E9        30.24S WCI  15
WEST PLAINS    CLOUDY    24  17  74 SE12      30.11F WCI  13

$$



USA.gov is the U.S. government's official web portal to all federal, state and local government web resources and services.